User: anonymous   Login
Location: Unspecified
(0.0000°N, 0.0000°E)
Time: 17:04:03
(UTC+00:00)
Language:

Nimbus 7 Rocket - Orbit

View from above orbital plane
View from above orbital plane
View from above satellite
View from above satellite

Ground track
Ground track

The orbit data is extracted from the following two-line orbital elements,

1 11081U 78098B   19015.76737638 -.00000053  00000-0 -57948-5 0  9994
2 11081  99.4715 266.4968 0028972 175.0006 185.1444 13.85663357872759
Epoch (UTC): 15 January 2019 18:25:01
Eccentricity: 0.0028972
inclination: 99.4715°
perigee height: 922 km
apogee height: 965 km
right ascension of ascending node: 266.4968°
argument of perigee: 175.0006°
revolutions per day: 13.85663357
mean anomaly at epoch: 185.1444°
orbit number at epoch: 87275

The dashed part of the orbit path shows where the satellite is in the earth's shadow,  

DLR